Waarnemingen

Advertentie
Mijn weer
Bujaraloz, Spanje (8165): temperatuur & dauwpunt: 11.02.2019 13:00:00 - 17.02.2019 13:00:00 (CET)Bujaraloz, Spanje (8165): windsnelheid & windstoten: 11.02.2019 13:00:00 - 17.02.2019 13:00:00 (CET)Bujaraloz, Spanje (8165): windrichting: 11.02.2019 13:00:00 - 17.02.2019 13:00:00 (CET)Bujaraloz, Spanje (8165): luchtdruk: 11.02.2019 13:00:00 - 17.02.2019 13:00:00 (CET)Bujaraloz, Spanje (8165): zicht: 11.02.2019 13:00:00 - 17.02.2019 13:00:00 (CET)Bujaraloz, Spanje (8165): Zonneschijnduur: 11.02.2019 13:00:00 - 17.02.2019 13:00:00 (CET)Bujaraloz, Spanje (8165): neerslag: 11.02.2019 13:00:00 - 17.02.2019 13:00:00 (CET)
Datum & Tijd tt [°C] td [°C] ff [km/u] ff [kn] fx [km/u] fx [kn] dd ppp [hPa] vv [km] sd [min] rr [mm]
17.02.2019 13:00:00 - - - - - - - - - - -
17.02.2019 12:00:00 7,7 -3,0 7 4 10 5 NO 1025,4 20 60 0,0
17.02.2019 11:00:00 5,1 -3,6 3 2 9 5 O 1026,0 14 60 0,0
17.02.2019 10:00:00 2,8 -2,0 3 2 6 4 ZZO 1026,4 3,6 47 0,0
17.02.2019 09:00:00 0,1 -2,2 2 1 8 5 NNO 1026,7 20 49 0,0
17.02.2019 08:00:00 -0,2 -1,7 3 2 7 4 NNW 1026,5 20 1 0,0
17.02.2019 07:00:00 0,7 -2,7 4 2 9 5 WNW 1026,2 20 0 -
17.02.2019 06:00:00 1,8 -3,0 7 4 10 6 WNW 1025,9 20 0 0,0
17.02.2019 05:00:00 1,5 -3,9 8 5 10 6 WNW 1025,7 20 0 0,0
17.02.2019 04:00:00 4,6 -3,9 4 2 14 7 ONO 1025,7 20 0 0,0
17.02.2019 03:00:00 5,4 -5,1 11 6 16 9 O 1025,9 20 0 0,0
17.02.2019 02:00:00 5,6 -3,6 13 7 18 10 ONO 1026,0 20 0 0,0
17.02.2019 01:00:00 6,3 -4,5 16 8 20 11 O 1026,1 20 0 -
17.02.2019 00:00:00 7,2 -2,7 12 7 14 8 O 1026,2 20 0 0,0
16.02.2019 23:00:00 8,8 -3,3 10 5 16 9 ZO 1026,4 20 0 0,0
16.02.2019 22:00:00 9,1 -2,0 13 7 22 12 OZO 1026,3 20 0 0,0
16.02.2019 21:00:00 9,7 -0,3 17 9 31 17 ZO 1025,8 20 0 0,0
16.02.2019 20:00:00 11,7 -0,5 14 8 29 16 ZO 1025,3 20 0 0,0
16.02.2019 19:00:00 13,4 -1,7 17 9 27 14 OZO 1024,9 20 27 -
16.02.2019 18:00:00 15,9 -3,6 18 10 37 20 OZO 1024,2 20 60 0,0
16.02.2019 17:00:00 17,1 -6,7 25 14 37 20 OZO 1024,3 20 60 0,0
16.02.2019 16:00:00 15,3 2,9 10 6 19 10 O 1025,1 20 60 0,0
16.02.2019 15:00:00 11,8 5,0 5 3 10 5 NO 1026,4 17 60 0,0
16.02.2019 14:00:00 8,8 4,3 6 3 10 5 NO 1027,9 16 60 0,0
16.02.2019 13:00:00 5,0 4,8 3 2 8 4 NO 1029,6 6 17 -
16.02.2019 12:00:00 3,5 3,4 3 1 11 6 NO 1030,7 0,2 0 0,0
16.02.2019 11:00:00 2,8 2,7 4 2 10 5 NNO 1030,7 0,1 0 0,0
16.02.2019 10:00:00 1,7 1,5 3 2 5 3 ONO 1030,7 0,1 0 0,0
16.02.2019 09:00:00 0,2 0,0 3 1 6 3 ZO 1030,5 0,1 0 0,0
16.02.2019 08:00:00 0,5 0,4 4 2 7 4 ONO 1029,8 0,2 0 0,0
16.02.2019 07:00:00 0,5 0,4 3 1 4 2 WNW 1029,2 0,2 0 -
16.02.2019 06:00:00 1,6 1,5 1 1 4 2 ZW 1029,0 0,2 0 0,0
16.02.2019 05:00:00 2,3 2,1 3 2 9 5 N 1028,5 0,5 0 0,0
16.02.2019 04:00:00 3,2 2,9 6 3 8 4 WNW 1028,4 3,3 0 0,0
16.02.2019 03:00:00 3,3 2,5 3 2 4 2 NNW 1028,6 4,4 0 0,0
16.02.2019 02:00:00 4,0 2,9 4 2 8 4 NW 1028,8 8 0 0,0
16.02.2019 01:00:00 4,3 2,7 7 4 11 6 W 1028,7 12 0 -
16.02.2019 00:00:00 5,3 3,9 0 0 6 4 N 1028,3 13 0 0,0
15.02.2019 23:00:00 7,0 3,9 6 3 9 5 Z 1028,1 19 0 0,0
15.02.2019 22:00:00 8,1 3,8 2 1 6 3 OZO 1027,7 20 0 0,0
15.02.2019 21:00:00 8,3 3,8 4 2 16 9 W 1027,6 20 0 0,0
15.02.2019 20:00:00 8,5 4,3 14 7 16 9 W 1027,2 20 0 0,0
15.02.2019 19:00:00 9,4 4,5 16 9 19 10 WNW 1026,8 20 19 -
15.02.2019 18:00:00 11,0 4,8 15 8 19 10 W 1026,4 20 60 0,0
15.02.2019 17:00:00 11,8 5,0 13 7 17 9 W 1026,5 20 60 0,0
15.02.2019 16:00:00 11,4 5,5 11 6 18 10 W 1027,0 18 60 0,0
15.02.2019 15:00:00 9,4 5,1 14 7 20 11 W 1027,8 20 60 0,0
15.02.2019 14:00:00 6,9 4,5 12 7 18 10 W 1029,1 18 43 0,0
15.02.2019 13:00:00 4,6 4,5 12 6 16 9 W 1030,5 12 0 -
15.02.2019 12:00:00 3,8 3,6 5 3 11 6 W 1031,1 6 0 0,0
15.02.2019 11:00:00 3,2 3,0 1 1 5 3 N 1031,1 0,7 0 0,0
15.02.2019 10:00:00 2,7 2,5 3 2 5 3 OZO 1031,0 0,3 0 0,0
15.02.2019 09:00:00 2,1 1,9 4 2 8 4 ZZO 1031,1 0,1 0 0,0
15.02.2019 08:00:00 2,1 1,9 6 3 8 4 ONO 1030,4 0,2 0 0,0
15.02.2019 07:00:00 1,6 0,9 4 2 7 4 OZO 1030,0 10 0 -
15.02.2019 06:00:00 1,6 1,3 3 2 8 5 Z 1029,8 8 0 0,0
15.02.2019 05:00:00 2,4 1,9 6 3 14 8 W 1029,3 10 0 0,0
15.02.2019 04:00:00 2,7 1,9 12 7 14 8 WNW 1029,5 13 0 0,0
15.02.2019 03:00:00 3,4 2,5 4 2 8 5 W 1029,8 18 0 0,0
15.02.2019 02:00:00 4,1 2,5 5 3 13 7 ZO 1029,7 20 0 0,0
15.02.2019 01:00:00 5,9 4,6 10 5 13 7 O 1029,5 20 0 -
15.02.2019 00:00:00 6,3 5,0 11 6 20 11 ONO 1029,4 20 0 0,0
14.02.2019 23:00:00 6,9 4,8 14 7 16 9 ONO 1029,2 20 0 0,0
14.02.2019 22:00:00 8,2 5,0 10 6 22 12 O 1029,1 20 0 0,0
14.02.2019 21:00:00 8,9 4,6 16 9 21 12 OZO 1028,7 20 0 0,0
14.02.2019 20:00:00 10,2 4,5 13 7 21 12 O 1028,7 20 0 0,0
14.02.2019 19:00:00 11,7 4,6 16 9 29 16 O 1028,5 20 22 -
14.02.2019 18:00:00 13,5 4,1 21 12 34 18 O 1028,0 20 60 0,0
14.02.2019 17:00:00 14,5 3,6 23 12 32 17 O 1028,2 20 60 0,0
14.02.2019 16:00:00 15,0 3,8 18 10 28 15 O 1028,8 20 60 0,0
14.02.2019 15:00:00 12,5 5,1 4 2 16 8 NO 1029,9 20 60 0,0
14.02.2019 14:00:00 10,5 5,9 10 5 16 8 WNW 1031,1 20 60 0,0
14.02.2019 13:00:00 8,7 5,3 7 4 14 8 W 1032,4 16 60 -
14.02.2019 12:00:00 5,7 5,5 2 1 7 4 Z 1033,7 8 12 0,0
14.02.2019 11:00:00 4,4 4,3 3 2 6 3 Z 1034,1 3,9 0 0,0
14.02.2019 10:00:00 3,2 3,0 3 1 7 4 ZZO 1034,1 0,2 0 0,0
14.02.2019 09:00:00 2,3 2,1 4 2 6 3 ZZO 1033,9 0,8 0 0,0
14.02.2019 08:00:00 1,8 1,7 3 1 7 4 WZW 1033,3 0,6 0 0,0
14.02.2019 07:00:00 2,2 2,1 7 4 13 7 W 1033,0 8 0 -
14.02.2019 06:00:00 2,8 2,7 8 5 11 6 WNW 1032,8 2,2 0 0,0
14.02.2019 05:00:00 2,6 2,3 6 3 8 5 W 1032,4 0,1 0 0,0
14.02.2019 04:00:00 5,4 4,8 4 2 8 4 O 1031,9 3,1 0 0,0
14.02.2019 03:00:00 6,6 5,9 4 2 10 5 OZO 1031,9 9 0 0,0
14.02.2019 02:00:00 6,7 6,1 7 4 15 8 O 1031,7 9 0 0,0
14.02.2019 01:00:00 7,0 6,1 12 7 15 8 ONO 1031,4 13 0 -
14.02.2019 00:00:00 7,7 6,5 9 5 13 7 O 1031,1 13 0 0,0
13.02.2019 23:00:00 7,9 6,5 9 5 16 8 ONO 1030,9 13 0 0,0
13.02.2019 22:00:00 8,7 6,7 11 6 16 9 O 1030,5 17 0 0,0
13.02.2019 21:00:00 9,6 6,5 13 7 18 10 O 1029,9 20 0 0,0
13.02.2019 20:00:00 10,8 6,7 16 9 24 13 O 1029,4 20 0 0,0
13.02.2019 19:00:00 12,4 6,2 18 10 27 15 O 1028,8 20 18 -
13.02.2019 18:00:00 14,6 5,5 18 10 26 14 O 1028,2 20 60 0,0
13.02.2019 17:00:00 15,0 3,4 13 7 17 9 NO 1028,3 20 60 0,0
13.02.2019 16:00:00 14,7 3,2 10 5 15 8 NO 1028,6 20 60 0,0
13.02.2019 15:00:00 13,5 3,2 6 3 15 8 NO 1029,3 20 60 0,0
13.02.2019 14:00:00 11,4 2,9 9 5 14 7 ONO 1030,2 20 60 0,0
13.02.2019 13:00:00 - - - - - - - - - - -
13.02.2019 12:00:00 6,6 2,3 5 3 9 5 NNO 1032,0 20 60 0,0
13.02.2019 11:00:00 4,0 1,7 2 1 6 3 N 1032,2 1,0 60 0,0
13.02.2019 10:00:00 1,2 1,1 4 2 6 4 O - - 60 0,0
13.02.2019 09:00:00 0,5 0,4 3 1 4 2 NNO 1032,0 0,2 27 0,0
13.02.2019 08:00:00 0,8 0,6 3 2 7 4 N 1031,3 0,3 0 0,0
13.02.2019 07:00:00 0,8 0,4 3 2 9 5 Z 1030,9 18 0 -
13.02.2019 06:00:00 1,1 0,6 6 4 7 4 ONO 1030,7 6 0 0,0
13.02.2019 05:00:00 2,0 1,5 3 1 5 3 NO 1030,4 20 0 0,0
13.02.2019 04:00:00 2,9 1,5 1 1 4 2 N 1030,4 20 0 0,0
13.02.2019 03:00:00 3,3 1,3 3 1 6 3 O 1030,7 20 0 0,0
13.02.2019 02:00:00 4,0 1,3 6 3 9 5 O 1030,8 20 0 0,0
13.02.2019 01:00:00 4,8 1,5 1 1 6 4 ZZW 1030,9 20 0 -
13.02.2019 00:00:00 4,7 1,5 6 4 8 4 ZO 1031,0 20 0 0,0
12.02.2019 23:00:00 6,3 2,3 3 2 13 7 WZW 1030,9 20 0 0,0
12.02.2019 22:00:00 7,6 2,3 9 5 10 5 WNW 1030,6 20 0 0,0
12.02.2019 21:00:00 8,6 2,5 5 3 8 4 W 1030,2 20 0 0,0
12.02.2019 20:00:00 11,4 1,9 5 3 9 5 O 1029,8 20 0 0,0
12.02.2019 19:00:00 11,8 1,7 6 3 9 5 O 1029,4 20 21 -
12.02.2019 18:00:00 12,1 2,3 8 4 10 5 NNO 1029,1 20 60 0,0
12.02.2019 17:00:00 12,6 2,7 6 3 14 8 NO 1029,1 20 60 0,0
12.02.2019 16:00:00 12,9 2,7 4 2 14 8 N 1029,4 20 60 0,0
12.02.2019 15:00:00 13,2 3,0 6 3 21 11 WZW 1030,1 20 60 0,0
12.02.2019 14:00:00 12,0 2,1 13 7 24 13 W 1031,1 20 60 0,0
12.02.2019 13:00:00 - - - - - - - - - - -
12.02.2019 12:00:00 9,1 1,9 16 9 25 14 WNW 1033,0 20 59 0,0
12.02.2019 11:00:00 - - - - - - - - - - -
12.02.2019 10:00:00 - - - - - - - - - - -
12.02.2019 09:00:00 3,0 0,4 11 6 14 8 W 1032,9 20 22 0,0
12.02.2019 08:00:00 3,5 1,1 16 8 20 11 WNW 1032,0 20 0 0,0
12.02.2019 07:00:00 4,5 0,9 7 4 16 9 ZZW 1031,8 20 0 -
12.02.2019 06:00:00 3,8 1,5 16 9 25 14 WNW 1031,4 20 0 0,0
12.02.2019 05:00:00 5,4 1,3 21 12 27 14 WZW 1031,0 20 0 0,0
12.02.2019 04:00:00 5,9 1,7 24 13 29 16 W 1031,1 20 0 0,0
12.02.2019 03:00:00 6,2 1,5 20 11 32 17 W 1031,2 20 0 0,0
12.02.2019 02:00:00 6,5 1,9 23 12 29 16 WZW 1030,8 20 0 0,0
12.02.2019 01:00:00 6,9 2,1 24 13 36 19 WZW 1030,5 20 0 -
12.02.2019 00:00:00 7,2 2,5 26 14 34 19 W 1030,0 20 0 0,0
11.02.2019 23:00:00 7,4 2,5 27 14 40 21 W 1029,7 20 0 0,0
11.02.2019 22:00:00 8,1 2,3 31 17 39 21 W 1028,9 20 0 0,0
11.02.2019 21:00:00 8,9 2,7 31 17 41 22 W 1028,3 20 0 0,0
11.02.2019 20:00:00 9,7 2,9 29 16 41 22 W 1027,8 20 0 0,0
11.02.2019 19:00:00 10,7 3,0 30 16 52 28 W 1027,0 20 27 -
11.02.2019 18:00:00 12,2 2,7 43 23 58 31 WNW 1026,0 20 60 0,0
11.02.2019 17:00:00 13,2 2,7 38 20 55 30 WNW 1025,9 20 58 0,0
11.02.2019 16:00:00 13,1 2,3 36 20 64 35 NW 1025,9 20 57 0,0
11.02.2019 15:00:00 13,0 2,5 44 24 65 35 NNW 1025,4 20 60 0,0
11.02.2019 14:00:00 12,3 2,5 41 22 64 35 NW 1026,1 20 54 0,0
11.02.2019 13:00:00 11,7 1,9 45 24 61 33 WNW 1027,1 20 57 -

tt = temperatuur
td = dauwpunt
ff = windsnelheid
fx = windstoten
dd = windrichting
ppp = luchtdruk
vv = zicht
sd = Zonneschijnduur
rr = neerslag

Weerstations in de omgeving